Regional Weather Roundup
Issued by NWS Sioux Falls, SD

Home | Current Version | Previous Version | Graphics & Text | Print | Product List | Glossary On
Versions: 1 2 3 4 5 6 7 8 9 10 11 12 13 14 15 16 17 18 19 20 21 22 23 24 25 26 27 28 29 30 31 32 33 34 35 36 37 38 39 40 41 42 43 44 45 46 47 48 49 50
000
ASUS43 KFSD 201110
RWRFSD

WEATHER ROUNDUP FOR SE SOUTH DAKOTA/SW MINNESOTA/NW IOWA
NATIONAL WEATHER SERVICE SIOUX FALLS SD
500 AM CST FRI JAN 20 2017

NOTE: "FAIR" INDICATES FEW OR NO CLOUDS BELOW 12,000 FEET WITH NO
SIGNIFICANT WEATHER AND OR OBSTRUCTIONS TO VISIBILITY.


SDZ038>040-050-052>070-201200-
SOUTHEAST SOUTH DAKOTA

CITY           SKY/WX    TMP DP  RH WIND       PRES   REMARKS
BROOKINGS      CLOUDY    35  35 100 SE10      29.49F FOG     WCI  27
CHAMBERLAIN    PTCLDY    34  33  97 S5        29.40F WCI  30
HURON          CLOUDY    37  37 100 S9        29.43F
MADISON        CLOUDY    34  34 100 SE10        N/A  WCI  26
MITCHELL       CLOUDY    38  38 100 SE8       29.46F
SIOUX FALLS    FOG       37  37 100 SE8       29.51F VSB 1/2
WINNER         FAIR      30  27  88 SW7       29.39F WCI  23
YANKTON        CLOUDY    37  36  93 E10       29.48F
$$

MNZ071-072-080-081-089-090-097-098-201200-
SOUTHWEST MINNESOTA

CITY           SKY/WX    TMP DP  RH WIND       PRES   REMARKS
FAIRMONT       CLOUDY    33  33 100 S6        29.61S FOG     WCI  28
JACKSON        FOG       32  32 100 SE6       29.59S VSB 1/2 WCI  26
LUVERNE        CLOUDY    34  34 100 SE6       29.54F FOG     WCI  29
MARSHALL       CLOUDY    34  34 100 SE12      29.56F FOG     WCI  25
MONTEVIDEO     FOG       34  34 100 S9        29.59S VSB 3/4 WCI  26
PIPESTONE      CLOUDY    36  36 100 SE5       29.51F FOG
REDWOOD FALLS  CLOUDY    34  32  92 SE10      29.59S FOG     WCI  26
TRACY          CLOUDY    35  35 100 SE7       29.57F FOG     WCI  29
WINDOM         FOG       36  34  93 SE5       29.58F VSB 1
WORTHINGTON    FOG       34  34 100 E7          N/A  VSB 1/2 WCI  28
$$

IAZ001>003-012>014-020>022-031-032-NEZ013-014-SDZ071-201200-
NORTHWEST IOWA

CITY           SKY/WX    TMP DP  RH WIND       PRES   REMARKS
CHEROKEE       CLOUDY    37  37 100 CALM      29.57S FOG
DENISON        CLOUDY    37  37 100 E5        29.55F FOG
ESTHERVILLE    CLOUDY    32  32 100 SE9       29.59F FOG     WCI  24
LE MARS        CLOUDY    37  37 100 SE9       29.55F FOG
ORANGE CITY    FOG       36  36 100 SE5       29.55S VSB 3/4
SHELDON        CLOUDY    36  36 100 E7        29.54F FOG
SIOUX CITY     FOG       38  37  97 SE9       29.54F VSB 3/4
SPENCER        CLOUDY    35  35 100 E5        29.58S
STORM LAKE     FOG       36  34  93 SE6       29.58S VSB 1/4
$$

ABBREVIATIONS USED IN REMARKS
   TC - TEMPERATURE IN CELSIUS
  WCI - WIND CHILL INDEX
   HX - HEAT INDEX
  VSB - VISIBILITY




USA.gov is the U.S. government's official web portal to all federal, state and local government web resources and services.